History Data

Date (GMT-7:00) CPM ACPM uSv/h Latitude Longitude Altitude CO CO2 TVOC HCHO Air Pressure Temperature Humidity Type
2026-04-21 23:35:19 24 20.10 0.120000 41.649648 41.62752893 0 0 0 0 0 0 0 0 STD5.60
2026-04-21 23:30:18 24 20.50 0.120000 41.649648 41.62752893 0 0 0 0 0 0 0 0 STD5.60
2026-04-21 23:25:15 20 18.90 0.100000 41.649648 41.62752893 0 0 0 0 0 0 0 0 STD5.60
2026-04-21 23:20:13 16 18.30 0.080000 41.649648 41.62752893 0 0 0 0 0 0 0 0 STD5.60
2026-04-21 23:15:10 17 18.60 0.085000 41.649648 41.62752893 0 0 0 0 0 0 0 0 STD5.60
2026-04-21 23:10:10 28 17.70 0.140000 41.649648 41.62752893 0 0 0 0 0 0 0 0 STD5.60
2026-04-21 23:05:07 14 16.30 0.070000 41.649648 41.62752893 0 0 0 0 0 0 0 0 STD5.60
2026-04-21 23:00:05 18 16.60 0.090000 41.649648 41.62752893 0 0 0 0 0 0 0 0 STD5.60
2026-04-21 22:55:05 15 18.30 0.075000 41.649648 41.62752893 0 0 0 0 0 0 0 0 STD5.60
2026-04-21 22:44:59 12 17.20 0.060000 41.649648 41.62752893 0 0 0 0 0 0 0 0 STD5.60
2026-04-21 22:39:57 15 17.70 0.075000 41.649648 41.62752893 0 0 0 0 0 0 0 0 STD5.60
2026-04-21 22:34:53 13 18.10 0.065000 41.649648 41.62752893 0 0 0 0 0 0 0 0 STD5.60
2026-04-21 22:29:51 26 18.40 0.130000 41.649648 41.62752893 0 0 0 0 0 0 0 0 STD5.60
2026-04-21 22:24:50 18 17.30 0.090000 41.649648 41.62752893 0 0 0 0 0 0 0 0 STD5.60
2026-04-21 22:19:48 18 17.60 0.090000 41.649648 41.62752893 0 0 0 0 0 0 0 0 STD5.60
2026-04-21 22:14:46 17 17.10 0.085000 41.649648 41.62752893 0 0 0 0 0 0 0 0 STD5.60
2026-04-21 22:09:44 21 18.80 0.105000 41.649648 41.62752893 0 0 0 0 0 0 0 0 STD5.60
2026-04-21 22:04:42 19 22.20 0.095000 41.649648 41.62752893 0 0 0 0 0 0 0 0 STD5.60
2026-04-21 21:59:40 22 20.10 0.110000 41.649648 41.62752893 0 0 0 0 0 0 0 0 STD5.60
2026-04-21 21:54:38 20 16.40 0.100000 41.649648 41.62752893 0 0 0 0 0 0 0 0 STD5.60
2026-04-21 21:49:36 13 15.70 0.065000 41.649648 41.62752893 0 0 0 0 0 0 0 0 STD5.60
2026-04-21 21:44:34 15 17.40 0.075000 41.649648 41.62752893 0 0 0 0 0 0 0 0 STD5.60
2026-04-21 21:39:32 16 20.20 0.080000 41.649648 41.62752893 0 0 0 0 0 0 0 0 STD5.60
2026-04-21 21:34:28 19 19.60 0.095000 41.649648 41.62752893 0 0 0 0 0 0 0 0 STD5.60
2026-04-21 21:29:26 10 17.40 0.050000 41.649648 41.62752893 0 0 0 0 0 0 0 0 STD5.60
2026-04-21 21:24:24 16 18.10 0.080000 41.649648 41.62752893 0 0 0 0 0 0 0 0 STD5.60
2026-04-21 21:19:22 18 16.50 0.090000 41.649648 41.62752893 0 0 0 0 0 0 0 0 STD5.60
2026-04-21 21:14:20 12 16.80 0.060000 41.649648 41.62752893 0 0 0 0 0 0 0 0 STD5.60
2026-04-21 21:09:18 22 16.90 0.110000 41.649648 41.62752893 0 0 0 0 0 0 0 0 STD5.60
2026-04-21 21:04:16 15 15.40 0.075000 41.649648 41.62752893 0 0 0 0 0 0 0 0 STD5.60
2026-04-21 20:59:14 21 17.00 0.105000 41.649648 41.62752893 0 0 0 0 0 0 0 0 STD5.60
2026-04-21 20:54:12 17 17.70 0.085000 41.649648 41.62752893 0 0 0 0 0 0 0 0 STD5.60
2026-04-21 20:49:10 17 18.10 0.085000 41.649648 41.62752893 0 0 0 0 0 0 0 0 STD5.60
2026-04-21 20:44:08 11 16.80 0.055000 41.649648 41.62752893 0 0 0 0 0 0 0 0 STD5.60
2026-04-21 20:39:06 21 17.20 0.105000 41.649648 41.62752893 0 0 0 0 0 0 0 0 STD5.60
2026-04-21 20:34:02 23 17.90 0.115000 41.649648 41.62752893 0 0 0 0 0 0 0 0 STD5.60
2026-04-21 20:29:00 19 16.80 0.095000 41.649648 41.62752893 0 0 0 0 0 0 0 0 STD5.60
2026-04-21 20:23:58 22 16.60 0.110000 41.649648 41.62752893 0 0 0 0 0 0 0 0 STD5.60
2026-04-21 20:18:57 13 17.20 0.065000 41.649648 41.62752893 0 0 0 0 0 0 0 0 STD5.60
2026-04-21 20:13:54 19 18.40 0.095000 41.649648 41.62752893 0 0 0 0 0 0 0 0 STD5.60
2026-04-21 20:08:53 20 19.40 0.100000 41.649648 41.62752893 0 0 0 0 0 0 0 0 STD5.60
2026-04-21 20:03:50 15 19.00 0.075000 41.649648 41.62752893 0 0 0 0 0 0 0 0 STD5.60
2026-04-21 18:53:20 25 17.80 0.125000 41.649648 41.62752893 0 0 0 0 0 0 0 0 STD5.60
2026-04-21 18:28:08 17 17.20 0.085000 41.649648 41.62752893 0 0 0 0 0 0 0 0 STD5.60
2026-04-21 18:23:06 19 18.00 0.095000 41.649648 41.62752893 0 0 0 0 0 0 0 0 STD5.60
2026-04-21 18:18:05 23 17.90 0.115000 41.649648 41.62752893 0 0 0 0 0 0 0 0 STD5.60
2026-04-21 18:13:02 22 18.30 0.110000 41.649648 41.62752893 0 0 0 0 0 0 0 0 STD5.60
2026-04-21 18:08:00 20 17.10 0.100000 41.649648 41.62752893 0 0 0 0 0 0 0 0 STD5.60
2026-04-21 18:02:58 22 16.10 0.110000 41.649648 41.62752893 0 0 0 0 0 0 0 0 STD5.60
2026-04-21 17:57:56 23 17.60 0.115000 41.649648 41.62752893 0 0 0 0 0 0 0 0 STD5.60
2026-04-21 17:52:54 19 18.60 0.095000 41.649648 41.62752893 0 0 0 0 0 0 0 0 STD5.60
2026-04-21 17:47:52 24 18.00 0.120000 41.649648 41.62752893 0 0 0 0 0 0 0 0 STD5.60
2026-04-21 17:42:50 25 19.00 0.125000 41.649648 41.62752893 0 0 0 0 0 0 0 0 STD5.60
2026-04-21 17:37:48 25 18.10 0.125000 41.649648 41.62752893 0 0 0 0 0 0 0 0 STD5.60
2026-04-21 17:32:44 16 18.00 0.080000 41.649648 41.62752893 0 0 0 0 0 0 0 0 STD5.60
2026-04-21 17:27:42 15 17.50 0.075000 41.649648 41.62752893 0 0 0 0 0 0 0 0 STD5.60
2026-04-21 17:22:39 18 18.50 0.090000 41.649648 41.62752893 0 0 0 0 0 0 0 0 STD5.60
2026-04-21 17:17:38 24 19.30 0.120000 41.649648 41.62752893 0 0 0 0 0 0 0 0 STD5.60
2026-04-21 17:12:35 14 16.00 0.070000 41.649648 41.62752893 0 0 0 0 0 0 0 0 STD5.60
2026-04-21 17:07:34 18 18.60 0.090000 41.649648 41.62752893 0 0 0 0 0 0 0 0 STD5.60
2026-04-21 17:02:31 32 20.90 0.160000 41.649648 41.62752893 0 0 0 0 0 0 0 0 STD5.60
2026-04-21 16:57:30 20 18.60 0.100000 41.649648 41.62752893 0 0 0 0 0 0 0 0 STD5.60
2026-04-21 16:52:28 15 17.90 0.075000 41.649648 41.62752893 0 0 0 0 0 0 0 0 STD5.60
2026-04-21 16:47:31 25 17.70 0.125000 41.649648 41.62752893 0 0 0 0 0 0 0 0 STD5.60
2026-04-21 16:42:27 20 17.40 0.100000 41.649648 41.62752893 0 0 0 0 0 0 0 0 STD5.60
2026-04-21 16:37:22 16 17.60 0.080000 41.649648 41.62752893 0 0 0 0 0 0 0 0 STD5.60
2026-04-21 16:32:18 20 16.00 0.100000 41.649648 41.62752893 0 0 0 0 0 0 0 0 STD5.60
2026-04-21 16:27:16 13 16.50 0.065000 41.649648 41.62752893 0 0 0 0 0 0 0 0 STD5.60
2026-04-21 16:22:14 17 19.90 0.085000 41.649648 41.62752893 0 0 0 0 0 0 0 0 STD5.60
2026-04-21 16:17:13 20 19.80 0.100000 41.649648 41.62752893 0 0 0 0 0 0 0 0 STD5.60
2026-04-21 16:12:11 19 18.20 0.095000 41.649648 41.62752893 0 0 0 0 0 0 0 0 STD5.60
2026-04-21 16:07:09 16 18.10 0.080000 41.649648 41.62752893 0 0 0 0 0 0 0 0 STD5.60
2026-04-21 16:02:10 25 17.60 0.125000 41.649648 41.62752893 0 0 0 0 0 0 0 0 STD5.60
2026-04-21 15:57:04 20 19.00 0.100000 41.649648 41.62752893 0 0 0 0 0 0 0 0 STD5.60
2026-04-21 15:52:03 21 21.60 0.105000 41.649648 41.62752893 0 0 0 0 0 0 0 0 STD5.60
2026-04-21 15:47:01 23 20.40 0.115000 41.649648 41.62752893 0 0 0 0 0 0 0 0 STD5.60
2026-04-21 15:41:59 21 18.50 0.105000 41.649648 41.62752893 0 0 0 0 0 0 0 0 STD5.60
2026-04-21 15:36:57 14 18.10 0.070000 41.649648 41.62752893 0 0 0 0 0 0 0 0 STD5.60
2026-04-21 15:31:53 25 18.70 0.125000 41.649648 41.62752893 0 0 0 0 0 0 0 0 STD5.60
2026-04-21 15:26:50 16 18.60 0.080000 41.649648 41.62752893 0 0 0 0 0 0 0 0 STD5.60
2026-04-21 15:21:49 23 18.10 0.115000 41.649648 41.62752893 0 0 0 0 0 0 0 0 STD5.60
2026-04-21 15:16:47 17 17.60 0.085000 41.649648 41.62752893 0 0 0 0 0 0 0 0 STD5.60
2026-04-21 15:11:45 15 17.60 0.075000 41.649648 41.62752893 0 0 0 0 0 0 0 0 STD5.60
2026-04-21 15:06:43 20 16.80 0.100000 41.649648 41.62752893 0 0 0 0 0 0 0 0 STD5.60
2026-04-21 15:01:41 11 15.20 0.055000 41.649648 41.62752893 0 0 0 0 0 0 0 0 STD5.60
2026-04-21 14:56:39 12 16.00 0.060000 41.649648 41.62752893 0 0 0 0 0 0 0 0 STD5.60
2026-04-21 14:51:37 19 15.10 0.095000 41.649648 41.62752893 0 0 0 0 0 0 0 0 STD5.60
2026-04-21 14:46:37 15 15.70 0.075000 41.649648 41.62752893 0 0 0 0 0 0 0 0 STD5.60
2026-04-21 14:41:33 18 16.90 0.090000 41.649648 41.62752893 0 0 0 0 0 0 0 0 STD5.60
2026-04-21 14:36:32 13 17.30 0.065000 41.649648 41.62752893 0 0 0 0 0 0 0 0 STD5.60
2026-04-21 14:31:30 26 16.90 0.130000 41.649648 41.62752893 0 0 0 0 0 0 0 0 STD5.60
2026-04-21 14:26:26 11 16.00 0.055000 41.649648 41.62752893 0 0 0 0 0 0 0 0 STD5.60
2026-04-21 14:21:24 14 19.70 0.070000 41.649648 41.62752893 0 0 0 0 0 0 0 0 STD5.60
2026-04-21 14:16:25 24 20.40 0.120000 41.649648 41.62752893 0 0 0 0 0 0 0 0 STD5.60
2026-04-21 14:11:21 21 18.70 0.105000 41.649648 41.62752893 0 0 0 0 0 0 0 0 STD5.60
2026-04-21 14:06:17 21 18.30 0.105000 41.649648 41.62752893 0 0 0 0 0 0 0 0 STD5.60
2026-04-21 14:01:16 17 17.60 0.085000 41.649648 41.62752893 0 0 0 0 0 0 0 0 STD5.60
2026-04-21 13:56:14 20 18.90 0.100000 41.649648 41.62752893 0 0 0 0 0 0 0 0 STD5.60
2026-04-21 13:51:12 16 17.30 0.080000 41.649648 41.62752893 0 0 0 0 0 0 0 0 STD5.60
2026-04-21 13:46:10 14 15.10 0.070000 41.649648 41.62752893 0 0 0 0 0 0 0 0 STD5.60
2026-04-21 13:41:08 21 16.20 0.105000 41.649648 41.62752893 0 0 0 0 0 0 0 0 STD5.60
2026-04-21 13:36:06 21 18.50 0.105000 41.649648 41.62752893 0 0 0 0 0 0 0 0 STD5.60
2026-04-21 13:31:02 9 19.20 0.045000 41.649648 41.62752893 0 0 0 0 0 0 0 0 STD5.60
2026-04-21 13:26:00 20 18.60 0.100000 41.649648 41.62752893 0 0 0 0 0 0 0 0 STD5.60
2026-04-21 13:20:58 22 18.40 0.110000 41.649648 41.62752893 0 0 0 0 0 0 0 0 STD5.60
2026-04-21 13:15:56 10 19.50 0.050000 41.649648 41.62752893 0 0 0 0 0 0 0 0 STD5.60
2026-04-21 13:10:54 20 19.10 0.100000 41.649648 41.62752893 0 0 0 0 0 0 0 0 STD5.60
2026-04-21 13:05:52 21 18.90 0.105000 41.649648 41.62752893 0 0 0 0 0 0 0 0 STD5.60
2026-04-21 13:00:50 25 18.10 0.125000 41.649648 41.62752893 0 0 0 0 0 0 0 0 STD5.60
2026-04-21 12:55:48 21 16.60 0.105000 41.649648 41.62752893 0 0 0 0 0 0 0 0 STD5.60
2026-04-21 12:50:47 12 15.90 0.060000 41.649648 41.62752893 0 0 0 0 0 0 0 0 STD5.60
2026-04-21 12:45:45 13 15.90 0.065000 41.649648 41.62752893 0 0 0 0 0 0 0 0 STD5.60
2026-04-21 12:40:43 23 17.80 0.115000 41.649648 41.62752893 0 0 0 0 0 0 0 0 STD5.60
2026-04-21 12:35:42 14 19.20 0.070000 41.649648 41.62752893 0 0 0 0 0 0 0 0 STD5.60
2026-04-21 12:30:38 20 18.00 0.100000 41.649648 41.62752893 0 0 0 0 0 0 0 0 STD5.60
2026-04-21 12:25:36 20 16.60 0.100000 41.649648 41.62752893 0 0 0 0 0 0 0 0 STD5.60
2026-04-21 12:20:34 19 16.80 0.095000 41.649648 41.62752893 0 0 0 0 0 0 0 0 STD5.60
2026-04-21 12:15:32 16 17.70 0.080000 41.649648 41.62752893 0 0 0 0 0 0 0 0 STD5.60
2026-04-21 12:10:29 17 18.60 0.085000 41.649648 41.62752893 0 0 0 0 0 0 0 0 STD5.60
2026-04-21 12:05:28 20 18.80 0.100000 41.649648 41.62752893 0 0 0 0 0 0 0 0 STD5.60
2026-04-21 12:00:26 16 18.30 0.080000 41.649648 41.62752893 0 0 0 0 0 0 0 0 STD5.60
2026-04-21 11:55:24 14 16.90 0.070000 41.649648 41.62752893 0 0 0 0 0 0 0 0 STD5.60
2026-04-21 11:50:22 14 17.30 0.070000 41.649648 41.62752893 0 0 0 0 0 0 0 0 STD5.60
2026-04-21 11:45:20 16 18.90 0.080000 41.649648 41.62752893 0 0 0 0 0 0 0 0 STD5.60
2026-04-21 11:40:18 13 20.60 0.065000 41.649648 41.62752893 0 0 0 0 0 0 0 0 STD5.60
2026-04-21 11:35:17 23 19.00 0.115000 41.649648 41.62752893 0 0 0 0 0 0 0 0 STD5.60
2026-04-21 11:30:12 23 17.20 0.115000 41.649648 41.62752893 0 0 0 0 0 0 0 0 STD5.60
2026-04-21 11:25:10 22 16.80 0.110000 41.649648 41.62752893 0 0 0 0 0 0 0 0 STD5.60
2026-04-21 11:20:08 20 16.80 0.100000 41.649648 41.62752893 0 0 0 0 0 0 0 0 STD5.60
2026-04-21 11:15:06 19 18.30 0.095000 41.649648 41.62752893 0 0 0 0 0 0 0 0 STD5.60
2026-04-21 11:05:02 18 17.00 0.090000 41.649648 41.62752893 0 0 0 0 0 0 0 0 STD5.60
2026-04-21 11:00:00 13 17.10 0.065000 41.649648 41.62752893 0 0 0 0 0 0 0 0 STD5.60
2026-04-21 10:54:57 14 19.20 0.070000 41.649648 41.62752893 0 0 0 0 0 0 0 0 STD5.60
2026-04-21 10:49:56 17 18.60 0.085000 41.649648 41.62752893 0 0 0 0 0 0 0 0 STD5.60
2026-04-21 10:44:54 17 17.80 0.085000 41.649648 41.62752893 0 0 0 0 0 0 0 0 STD5.60
2026-04-21 10:39:52 11 10.80 0.055000 41.649648 41.62752893 0 0 0 0 0 0 0 0 STD5.60
2026-04-21 10:34:50 14 2.30 0.070000 41.649648 41.62752893 0 0 0 0 0 0 0 0 STD5.60
2026-04-21 10:29:45 23 19.00 0.115000 41.649648 41.62752893 0 0 0 0 0 0 0 0 STD5.60
2026-04-21 10:24:43 23 17.50 0.115000 41.649648 41.62752893 0 0 0 0 0 0 0 0 STD5.60
2026-04-21 10:19:41 14 17.10 0.070000 41.649648 41.62752893 0 0 0 0 0 0 0 0 STD5.60
2026-04-21 10:14:39 13 17.00 0.065000 41.649648 41.62752893 0 0 0 0 0 0 0 0 STD5.60
2026-04-21 10:09:37 12 17.20 0.060000 41.649648 41.62752893 0 0 0 0 0 0 0 0 STD5.60
2026-04-21 10:04:35 14 17.50 0.070000 41.649648 41.62752893 0 0 0 0 0 0 0 0 STD5.60
2026-04-21 09:59:33 12 17.60 0.060000 41.649648 41.62752893 0 0 0 0 0 0 0 0 STD5.60
2026-04-21 09:54:31 18 15.50 0.090000 41.649648 41.62752893 0 0 0 0 0 0 0 0 STD5.60
2026-04-21 09:49:29 15 14.90 0.075000 41.649648 41.62752893 0 0 0 0 0 0 0 0 STD5.60
2026-04-21 09:44:27 15 17.40 0.075000 41.649648 41.62752893 0 0 0 0 0 0 0 0 STD5.60
2026-04-21 09:39:25 21 17.20 0.105000 41.649648 41.62752893 0 0 0 0 0 0 0 0 STD5.60
2026-04-21 09:34:23 23 18.70 0.115000 41.649648 41.62752893 0 0 0 0 0 0 0 0 STD5.60
2026-04-21 09:29:19 24 19.60 0.120000 41.649648 41.62752893 0 0 0 0 0 0 0 0 STD5.60
2026-04-21 09:24:17 12 18.50 0.060000 41.649648 41.62752893 0 0 0 0 0 0 0 0 STD5.60
2026-04-21 09:19:16 14 17.10 0.070000 41.649648 41.62752893 0 0 0 0 0 0 0 0 STD5.60
2026-04-21 09:14:13 18 17.20 0.090000 41.649648 41.62752893 0 0 0 0 0 0 0 0 STD5.60
2026-04-21 09:09:11 26 17.50 0.130000 41.649648 41.62752893 0 0 0 0 0 0 0 0 STD5.60
2026-04-21 09:04:09 16 17.00 0.080000 41.649648 41.62752893 0 0 0 0 0 0 0 0 STD5.60
2026-04-21 08:59:07 26 17.80 0.130000 41.649648 41.62752893 0 0 0 0 0 0 0 0 STD5.60
2026-04-21 08:54:05 15 17.20 0.075000 41.649648 41.62752893 0 0 0 0 0 0 0 0 STD5.60
2026-04-21 08:49:04 16 15.10 0.080000 41.649648 41.62752893 0 0 0 0 0 0 0 0 STD5.60
2026-04-21 08:44:01 18 16.00 0.090000 41.649648 41.62752893 0 0 0 0 0 0 0 0 STD5.60
2026-04-21 08:38:59 11 16.50 0.055000 41.649648 41.62752893 0 0 0 0 0 0 0 0 STD5.60
2026-04-21 08:33:57 24 15.40 0.120000 41.649648 41.62752893 0 0 0 0 0 0 0 0 STD5.60
2026-04-21 08:28:53 10 18.60 0.050000 41.649648 41.62752893 0 0 0 0 0 0 0 0 STD5.60
2026-04-21 08:23:51 21 19.40 0.105000 41.649648 41.62752893 0 0 0 0 0 0 0 0 STD5.60
2026-04-21 08:18:49 16 17.60 0.080000 41.649648 41.62752893 0 0 0 0 0 0 0 0 STD5.60
2026-04-21 08:13:48 17 16.40 0.085000 41.649648 41.62752893 0 0 0 0 0 0 0 0 STD5.60
2026-04-21 08:08:45 10 17.40 0.050000 41.649648 41.62752893 0 0 0 0 0 0 0 0 STD5.60
2026-04-21 08:03:44 19 19.20 0.095000 41.649648 41.62752893 0 0 0 0 0 0 0 0 STD5.60
2026-04-21 07:58:41 15 18.50 0.075000 41.649648 41.62752893 0 0 0 0 0 0 0 0 STD5.60
2026-04-21 07:53:39 23 16.80 0.115000 41.649648 41.62752893 0 0 0 0 0 0 0 0 STD5.60
2026-04-21 07:48:37 18 15.20 0.090000 41.649648 41.62752893 0 0 0 0 0 0 0 0 STD5.60
2026-04-21 07:43:35 19 16.80 0.095000 41.649648 41.62752893 0 0 0 0 0 0 0 0 STD5.60
2026-04-21 07:38:33 19 17.70 0.095000 41.649648 41.62752893 0 0 0 0 0 0 0 0 STD5.60
2026-04-21 07:33:31 15 16.80 0.075000 41.649648 41.62752893 0 0 0 0 0 0 0 0 STD5.60
2026-04-21 07:28:27 21 16.60 0.105000 41.649648 41.62752893 0 0 0 0 0 0 0 0 STD5.60
2026-04-21 07:23:25 22 16.70 0.110000 41.649648 41.62752893 0 0 0 0 0 0 0 0 STD5.60
2026-04-21 07:18:23 18 15.20 0.090000 41.649648 41.62752893 0 0 0 0 0 0 0 0 STD5.60
2026-04-21 07:13:22 16 15.10 0.080000 41.649648 41.62752893 0 0 0 0 0 0 0 0 STD5.60
2026-04-21 07:08:19 12 16.80 0.060000 41.649648 41.62752893 0 0 0 0 0 0 0 0 STD5.60
2026-04-21 06:58:15 14 19.80 0.070000 41.649648 41.62752893 0 0 0 0 0 0 0 0 STD5.60
2026-04-21 06:53:14 25 18.40 0.125000 41.649648 41.62752893 0 0 0 0 0 0 0 0 STD5.60
2026-04-21 06:48:11 14 15.60 0.070000 41.649648 41.62752893 0 0 0 0 0 0 0 0 STD5.60
2026-04-21 06:43:09 10 18.90 0.050000 41.649648 41.62752893 0 0 0 0 0 0 0 0 STD5.60
2026-04-21 06:38:07 20 18.60 0.100000 41.649648 41.62752893 0 0 0 0 0 0 0 0 STD5.60
2026-04-21 06:33:05 10 16.00 0.050000 41.649648 41.62752893 0 0 0 0 0 0 0 0 STD5.60
2026-04-21 06:28:01 19 16.50 0.095000 41.649648 41.62752893 0 0 0 0 0 0 0 0 STD5.60
2026-04-21 06:22:59 13 15.40 0.065000 41.649648 41.62752893 0 0 0 0 0 0 0 0 STD5.60
2026-04-21 06:17:57 17 14.90 0.085000 41.649648 41.62752893 0 0 0 0 0 0 0 0 STD5.60
2026-04-21 06:12:55 8 17.00 0.040000 41.649648 41.62752893 0 0 0 0 0 0 0 0 STD5.60
2026-04-21 06:07:53 18 19.10 0.090000 41.649648 41.62752893 0 0 0 0 0 0 0 0 STD5.60
2026-04-21 06:02:59 21 19.00 0.105000 41.649648 41.62752893 0 0 0 0 0 0 0 0 STD5.60
2026-04-21 05:57:50 17 17.90 0.085000 41.649648 41.62752893 0 0 0 0 0 0 0 0 STD5.60
2026-04-21 05:52:47 18 16.20 0.090000 41.649648 41.62752893 0 0 0 0 0 0 0 0 STD5.60
2026-04-21 05:47:45 15 15.80 0.075000 41.649648 41.62752893 0 0 0 0 0 0 0 0 STD5.60
2026-04-21 05:42:44 19 17.40 0.095000 41.649648 41.62752893 0 0 0 0 0 0 0 0 STD5.60
2026-04-21 05:37:42 19 16.10 0.095000 41.649648 41.62752893 0 0 0 0 0 0 0 0 STD5.60
2026-04-21 05:32:41 16 16.70 0.080000 41.649648 41.62752893 0 0 0 0 0 0 0 0 STD5.60
2026-04-21 05:27:36 21 17.30 0.105000 41.649648 41.62752893 0 0 0 0 0 0 0 0 STD5.60
2026-04-21 05:22:34 16 18.60 0.080000 41.649648 41.62752893 0 0 0 0 0 0 0 0 STD5.60
2026-04-21 05:17:33 21 19.20 0.105000 41.649648 41.62752893 0 0 0 0 0 0 0 0 STD5.60
2026-04-21 05:12:31 14 16.10 0.070000 41.649648 41.62752893 0 0 0 0 0 0 0 0 STD5.60
2026-04-21 05:07:29 18 15.10 0.090000 41.649648 41.62752893 0 0 0 0 0 0 0 0 STD5.60
2026-04-21 05:02:27 18 17.00 0.090000 41.649648 41.62752893 0 0 0 0 0 0 0 0 STD5.60
2026-04-21 04:57:25 18 17.20 0.090000 41.649648 41.62752893 0 0 0 0 0 0 0 0 STD5.60
2026-04-21 04:52:23 15 16.50 0.075000 41.649648 41.62752893 0 0 0 0 0 0 0 0 STD5.60
2026-04-21 04:47:23 20 18.20 0.100000 41.649648 41.62752893 0 0 0 0 0 0 0 0 STD5.60
2026-04-21 04:42:19 19 18.30 0.095000 41.649648 41.62752893 0 0 0 0 0 0 0 0 STD5.60
2026-04-21 04:37:17 17 18.30 0.085000 41.649648 41.62752893 0 0 0 0 0 0 0 0 STD5.60
2026-04-21 04:32:16 18 18.50 0.090000 41.649648 41.62752893 0 0 0 0 0 0 0 0 STD5.60
2026-04-21 04:27:12 17 18.40 0.085000 41.649648 41.62752893 0 0 0 0 0 0 0 0 STD5.60
2026-04-21 04:22:10 20 17.70 0.100000 41.649648 41.62752893 0 0 0 0 0 0 0 0 STD5.60
2026-04-21 04:17:07 12 16.50 0.060000 41.649648 41.62752893 0 0 0 0 0 0 0 0 STD5.60
2026-04-21 04:12:06 21 15.10 0.105000 41.649648 41.62752893 0 0 0 0 0 0 0 0 STD5.60
2026-04-21 04:07:03 17 17.10 0.085000 41.649648 41.62752893 0 0 0 0 0 0 0 0 STD5.60
2026-04-21 04:02:05 23 19.60 0.115000 41.649648 41.62752893 0 0 0 0 0 0 0 0 STD5.60
2026-04-21 03:56:59 17 18.00 0.085000 41.649648 41.62752893 0 0 0 0 0 0 0 0 STD5.60
2026-04-21 03:51:57 20 16.20 0.100000 41.649648 41.62752893 0 0 0 0 0 0 0 0 STD5.60
2026-04-21 03:46:55 21 17.50 0.105000 41.649648 41.62752893 0 0 0 0 0 0 0 0 STD5.60
2026-04-21 03:41:54 21 18.60 0.105000 41.649648 41.62752893 0 0 0 0 0 0 0 0 STD5.60
2026-04-21 03:36:51 13 17.30 0.065000 41.649648 41.62752893 0 0 0 0 0 0 0 0 STD5.60
2026-04-21 03:31:50 12 18.90 0.060000 41.649648 41.62752893 0 0 0 0 0 0 0 0 STD5.60
2026-04-21 03:26:45 20 19.60 0.100000 41.649648 41.62752893 0 0 0 0 0 0 0 0 STD5.60
2026-04-21 03:21:43 18 18.60 0.090000 41.649648 41.62752893 0 0 0 0 0 0 0 0 STD5.60
2026-04-21 03:16:41 16 18.40 0.080000 41.649648 41.62752893 0 0 0 0 0 0 0 0 STD5.60
2026-04-21 03:11:40 18 18.20 0.090000 41.649648 41.62752893 0 0 0 0 0 0 0 0 STD5.60
2026-04-21 03:06:37 17 18.60 0.085000 41.649648 41.62752893 0 0 0 0 0 0 0 0 STD5.60
2026-04-21 03:01:35 10 16.70 0.050000 41.649648 41.62752893 0 0 0 0 0 0 0 0 STD5.60
2026-04-21 02:56:34 14 15.80 0.070000 41.649648 41.62752893 0 0 0 0 0 0 0 0 STD5.60
2026-04-21 02:51:31 22 20.70 0.110000 41.649648 41.62752893 0 0 0 0 0 0 0 0 STD5.60
2026-04-21 02:46:30 27 20.60 0.135000 41.649648 41.62752893 0 0 0 0 0 0 0 0 STD5.60
2026-04-21 02:41:28 15 17.40 0.075000 41.649648 41.62752893 0 0 0 0 0 0 0 0 STD5.60
2026-04-21 02:36:26 15 18.60 0.075000 41.649648 41.62752893 0 0 0 0 0 0 0 0 STD5.60
2026-04-21 02:31:24 19 19.10 0.095000 41.649648 41.62752893 0 0 0 0 0 0 0 0 STD5.60
2026-04-21 02:26:20 14 18.60 0.070000 41.649648 41.62752893 0 0 0 0 0 0 0 0 STD5.60
2026-04-21 02:21:18 17 19.20 0.085000 41.649648 41.62752893 0 0 0 0 0 0 0 0 STD5.60
2026-04-21 02:16:16 29 19.30 0.145000 41.649648 41.62752893 0 0 0 0 0 0 0 0 STD5.60
2026-04-21 02:11:16 14 18.00 0.070000 41.649648 41.62752893 0 0 0 0 0 0 0 0 STD5.60
2026-04-21 02:06:12 19 16.20 0.095000 41.649648 41.62752893 0 0 0 0 0 0 0 0 STD5.60
2026-04-21 01:56:08 22 17.20 0.110000 41.649648 41.62752893 0 0 0 0 0 0 0 0 STD5.60
2026-04-21 01:51:06 27 18.90 0.135000 41.649648 41.62752893 0 0 0 0 0 0 0 0 STD5.60
2026-04-21 01:46:04 21 19.10 0.105000 41.649648 41.62752893 0 0 0 0 0 0 0 0 STD5.60
2026-04-21 01:41:02 14 17.60 0.070000 41.649648 41.62752893 0 0 0 0 0 0 0 0 STD5.60
2026-04-21 01:36:00 15 16.70 0.075000 41.649648 41.62752893 0 0 0 0 0 0 0 0 STD5.60
2026-04-21 01:30:56 10 18.70 0.050000 41.649648 41.62752893 0 0 0 0 0 0 0 0 STD5.60
2026-04-21 01:25:55 20 20.90 0.100000 41.649648 41.62752893 0 0 0 0 0 0 0 0 STD5.60
2026-04-21 01:20:52 23 18.50 0.115000 41.649648 41.62752893 0 0 0 0 0 0 0 0 STD5.60
2026-04-21 01:15:50 14 17.40 0.070000 41.649648 41.62752893 0 0 0 0 0 0 0 0 STD5.60
2026-04-21 01:10:49 15 17.40 0.075000 41.649648 41.62752893 0 0 0 0 0 0 0 0 STD5.60
2026-04-21 01:05:46 16 16.90 0.080000 41.649648 41.62752893 0 0 0 0 0 0 0 0 STD5.60
2026-04-21 01:00:44 14 17.30 0.070000 41.649648 41.62752893 0 0 0 0 0 0 0 0 STD5.60
2026-04-21 00:55:43 20 17.20 0.100000 41.649648 41.62752893 0 0 0 0 0 0 0 0 STD5.60
2026-04-21 00:50:41 19 16.10 0.095000 41.649648 41.62752893 0 0 0 0 0 0 0 0 STD5.60
2026-04-21 00:45:39 14 16.50 0.070000 41.649648 41.62752893 0 0 0 0 0 0 0 0 STD5.60
2026-04-21 00:40:37 18 17.30 0.090000 41.649648 41.62752893 0 0 0 0 0 0 0 0 STD5.60
2026-04-21 00:35:34 18 19.40 0.090000 41.649648 41.62752893 0 0 0 0 0 0 0 0 STD5.60
2026-04-21 00:30:31 17 19.00 0.085000 41.649648 41.62752893 0 0 0 0 0 0 0 0 STD5.60
2026-04-21 00:25:28 19 16.60 0.095000 41.649648 41.62752893 0 0 0 0 0 0 0 0 STD5.60
2026-04-21 00:20:27 15 17.50 0.075000 41.649648 41.62752893 0 0 0 0 0 0 0 0 STD5.60
2026-04-21 00:15:25 14 18.60 0.070000 41.649648 41.62752893 0 0 0 0 0 0 0 0 STD5.60
2026-04-21 00:10:23 21 17.20 0.105000 41.649648 41.62752893 0 0 0 0 0 0 0 0 STD5.60
2026-04-21 00:05:21 15 17.20 0.075000 41.649648 41.62752893 0 0 0 0 0 0 0 0 STD5.60
2026-04-21 00:00:21 17 17.70 0.085000 41.649648 41.62752893 0 0 0 0 0 0 0 0 STD5.60
2026-04-20 23:55:18 15 17.20 0.075000 41.649648 41.62752893 0 0 0 0 0 0 0 0 STD5.60
2026-04-20 23:50:15 13 18.40 0.065000 41.649648 41.62752893 0 0 0 0 0 0 0 0 STD5.60
2026-04-20 23:45:13 16 19.30 0.080000 41.649648 41.62752893 0 0 0 0 0 0 0 0 STD5.60
2026-04-20 23:40:12 18 18.00 0.090000 41.649648 41.62752893 0 0 0 0 0 0 0 0 STD5.60
2026-04-20 23:35:09 8 18.50 0.040000 41.649648 41.62752893 0 0 0 0 0 0 0 0 STD5.60
2026-04-20 23:30:06 32 20.00 0.160000 41.649648 41.62752893 0 0 0 0 0 0 0 0 STD5.60
2026-04-20 23:25:04 16 18.80 0.080000 41.649648 41.62752893 0 0 0 0 0 0 0 0 STD5.60
2026-04-20 23:20:01 14 18.40 0.070000 41.649648 41.62752893 0 0 0 0 0 0 0 0 STD5.60
2026-04-20 23:14:59 24 19.20 0.120000 41.649648 41.62752893 0 0 0 0 0 0 0 0 STD5.60
2026-04-20 23:09:58 16 18.80 0.080000 41.649648 41.62752893 0 0 0 0 0 0 0 0 STD5.60
2026-04-20 23:04:56 19 17.70 0.095000 41.649648 41.62752893 0 0 0 0 0 0 0 0 STD5.60
2026-04-20 22:59:54 26 18.80 0.130000 41.649648 41.62752893 0 0 0 0 0 0 0 0 STD5.60
2026-04-20 22:54:52 26 19.60 0.130000 41.649648 41.62752893 0 0 0 0 0 0 0 0 STD5.60
2026-04-20 22:49:50 22 18.20 0.110000 41.649648 41.62752893 0 0 0 0 0 0 0 0 STD5.60
2026-04-20 22:44:48 19 19.50 0.095000 41.649648 41.62752893 0 0 0 0 0 0 0 0 STD5.60
2026-04-20 22:39:46 22 20.20 0.110000 41.649648 41.62752893 0 0 0 0 0 0 0 0 STD5.60
2026-04-20 22:34:44 17 19.00 0.085000 41.649648 41.62752893 0 0 0 0 0 0 0 0 STD5.60
2026-04-20 22:29:40 21 18.30 0.105000 41.649648 41.62752893 0 0 0 0 0 0 0 0 STD5.60
2026-04-20 22:24:38 20 17.40 0.100000 41.649648 41.62752893 0 0 0 0 0 0 0 0 STD5.60
2026-04-20 22:19:36 19 19.00 0.095000 41.649648 41.62752893 0 0 0 0 0 0 0 0 STD5.60
2026-04-20 22:14:34 18 20.10 0.090000 41.649648 41.62752893 0 0 0 0 0 0 0 0 STD5.60
2026-04-20 22:09:32 19 18.90 0.095000 41.649648 41.62752893 0 0 0 0 0 0 0 0 STD5.60
2026-04-20 22:04:31 21 18.50 0.105000 41.649648 41.62752893 0 0 0 0 0 0 0 0 STD5.60
2026-04-20 21:59:29 18 17.00 0.090000 41.649648 41.62752893 0 0 0 0 0 0 0 0 STD5.60
2026-04-20 21:54:27 11 17.90 0.055000 41.649648 41.62752893 0 0 0 0 0 0 0 0 STD5.60
2026-04-20 21:49:24 24 17.60 0.120000 41.649648 41.62752893 0 0 0 0 0 0 0 0 STD5.60
2026-04-20 21:44:22 14 17.00 0.070000 41.649648 41.62752893 0 0 0 0 0 0 0 0 STD5.60
2026-04-20 21:39:20 13 17.20 0.065000 41.649648 41.62752893 0 0 0 0 0 0 0 0 STD5.60
2026-04-20 21:34:18 17 16.60 0.085000 41.649648 41.62752893 0 0 0 0 0 0 0 0 STD5.60
2026-04-20 21:29:13 19 16.80 0.095000 41.649648 41.62752893 0 0 0 0 0 0 0 0 STD5.60
2026-04-20 21:24:11 20 16.20 0.100000 41.649648 41.62752893 0 0 0 0 0 0 0 0 STD5.60
2026-04-20 21:19:09 15 17.70 0.075000 41.649648 41.62752893 0 0 0 0 0 0 0 0 STD5.60
2026-04-20 21:14:07 17 18.20 0.085000 41.649648 41.62752893 0 0 0 0 0 0 0 0 STD5.60
2026-04-20 21:09:05 20 19.20 0.100000 41.649648 41.62752893 0 0 0 0 0 0 0 0 STD5.60
2026-04-20 21:04:02 14 19.30 0.070000 41.649648 41.62752893 0 0 0 0 0 0 0 0 STD5.60
2026-04-20 20:59:00 15 18.20 0.075000 41.649648 41.62752893 0 0 0 0 0 0 0 0 STD5.60
2026-04-20 20:53:58 19 18.80 0.095000 41.649648 41.62752893 0 0 0 0 0 0 0 0 STD5.60
2026-04-20 20:48:57 20 18.90 0.100000 41.649648 41.62752893 0 0 0 0 0 0 0 0 STD5.60
2026-04-20 20:43:55 13 18.40 0.065000 41.649648 41.62752893 0 0 0 0 0 0 0 0 STD5.60
Geiger Counter World Map       A real time radiation map.     Copyright 2015 All rights reserved.